Location: ?p Thanh B�nh
(16.5833°N, 107.5333°E)
Time: 05:38:45
(UTC+00:00)

Cosmos 2322 Rocket - Pass Details

Date: 29 October 2020
Orbit: 833 x 851 km, 71.0° (Epoch: 29 November)

Event Time Altitude Azimuth Distance (km) Brightness Sun altitude
Rises 12:50:11 0° 210° (SSW) 3,393 5.7 -36.2°
Reaches altitude 10° 12:52:43 10° 216° (SW) 2,462 5.0 -36.8°
Enters shadow 12:55:30 28° 233° (SW) 1,546 3.9 -37.5°
